Flag for Myanmar Weather past 2 weeks in Yangon, Myanmar

Now
79 °F

Passing clouds.


Feels Like: 82 °F
Forecast: 76 / 89 °F
Wind: 2 mph from West

Location: Rangoon Airport

Current Time: Sep 30, 2014 at 9:01:12 PM

Latest Report: Sep 30, 2014 at 8:30 PM


Visibility: 4 mi

Pressure: 29.86 "Hg

Humidity: 84%

Dew point: 73 °F

Location of YangonLocation

Historic Weather in Yangon — Graph

°F

Yangon temperature yesterday

Maximum temperature yesterday: 90 °F (at 11:00 AM)
Minimum temperature yesterday: 79 °F (at 5:00 AM)
Average temperature yesterday: 83 °F

Past Weeks' High & Low Weather Summary

 TemperatureHumidityPressure
High91 °F (Sep 23, 1:00 PM)100% (Sep 16, 5:00 AM)29.95 "Hg (Sep 16, 5:00 AM)
Low75 °F (Sep 18, 9:30 PM)63% (Sep 28, 12:30 PM)29.56 "Hg (Sep 16, 3:30 PM)
Average82 °F87%29.81 "Hg
* Reported Sep 15 7:30 PM — Sep 30 8:00 PM, Yangon, Weather by CustomWeather, © 2014

Note: Actual official high and low records may vary slightly from our data, if they occured in-between our weather recording intervals... More about our weather records

Advertising

Yangon weather history for previous 24 hours

 ConditionsComfort  
Time TempWeatherWind HumidityBarometerVisibility
8:00 PM
Sep 30
77 °FPassing clouds.1 mph89%29.86 "Hg4 mi
7:30 PM77 °FPassing clouds.5 mph89%29.86 "Hg4 mi
7:00 PM77 °FPassing clouds.2 mph89%29.83 "Hg4 mi
6:30 PM77 °FThunderstorms. Mostly cloudy.9 mph94%29.83 "Hg4 mi
6:00 PM77 °FThunderstorms. Mostly cloudy.6 mph94%29.83 "Hg4 mi
5:30 PM77 °FThunderstorms. Mostly cloudy.12 mph94%29.80 "Hg4 mi
5:00 PM84 °FPartly sunny.9 mph84%29.80 "Hg4 mi
4:30 PM88 °FBroken clouds.3 mph70%29.77 "Hg5 mi
4:00 PM88 °FBroken clouds.6 mph70%29.74 "Hg5 mi
3:30 PM86 °FPartly sunny.2 mph75%29.74 "Hg5 mi
3:00 PM88 °FPartly sunny.3 mph70%29.77 "Hg5 mi
2:30 PM88 °FPartly sunny.5 mph70%29.77 "Hg5 mi
2:00 PM88 °FPartly sunny.3 mph70%29.80 "Hg5 mi
1:30 PM86 °FPartly sunny.3 mph75%29.83 "Hg5 mi
1:00 PM88 °FPartly sunny.7 mph70%29.83 "Hg5 mi
12:30 PM88 °FPartly sunny.3 mph70%29.86 "Hg5 mi
12:00 PM86 °FPartly sunny.5 mph75%29.86 "Hg5 mi
11:30 AM86 °FPartly sunny.6 mph75%29.89 "Hg5 mi
11:00 AM84 °FPartly sunny.9 mph84%29.89 "Hg5 mi
10:30 AM84 °FPassing clouds.7 mph84%29.89 "Hg4 mi
10:00 AM84 °FPassing clouds.7 mph84%29.89 "Hg4 mi
9:30 AM81 °FPassing clouds.7 mph94%29.92 "Hg4 mi
9:00 AM81 °FScattered clouds.7 mph94%29.92 "Hg4 mi
8:30 AM77 °FPartly sunny.7 mph89%29.89 "Hg4 mi
8:00 AM77 °FPartly sunny.7 mph89%29.89 "Hg4 mi
7:30 AM77 °FScattered clouds.7 mph89%29.86 "Hg4 mi
7:00 AM75 °FMostly cloudy.7 mph100%29.86 "Hg4 mi
6:30 AM75 °FMostly cloudy.6 mph100%29.83 "Hg4 mi
6:00 AM75 °FMostly cloudy.6 mph100%29.83 "Hg4 mi
5:30 AM75 °FMostly cloudy.6 mph100%29.80 "Hg4 mi
5:00 AM75 °FMostly cloudy.6 mph100%29.83 "Hg4 mi
1:20 AM77 °FMostly cloudy.3 mph89%29.83 "Hg4 mi
12:00 AM77 °FDrizzle. Mostly cloudy.12 mph100%29.89 "Hg4 mi
9:30 PM
Sep 29
81 °FPassing clouds.5 mph94%29.86 "Hg4 mi
9:00 PM81 °FPassing clouds.5 mph94%29.86 "Hg4 mi
Weather by CustomWeather, © 2014

See weather overviewHow to use our weather pages